Location: Cossonay
(46.5833°N, 6.4167°E)
Time: 08:12:05
(UTC+00:00)

CBERS-1 - Visible Passes

Search period start: 09 May 2021 00:00
Search period end: 19 May 2021 00:00
Orbit: 769 x 777 km, 98.7° (Epoch: 08 May)

Date Brightness Start Highest point End Pass type
(mag) Time Alt. Az. Time Alt. Az. Time Alt. Az.
09 May 5.5 01:20:21 10° NE 01:24:47 29° E 01:27:59 16° SE visible
09 May 4.7 02:59:16 10° N 03:04:00 40° WNW 03:08:22 12° SW visible
10 May 6.4 00:47:11 10° NE 00:50:00 15° E 00:52:47 10° ESE visible
10 May 4.0 02:24:36 10° NNE 02:29:44 78° WNW 02:33:35 18° SSW visible
11 May 4.6 01:50:16 10° NNE 01:55:16 53° E 01:58:49 19° S visible
11 May 5.4 03:30:05 10° N 03:34:04 24° WNW 03:38:03 10° WSW visible
12 May 5.7 01:16:20 10° NE 01:20:38 27° E 01:24:02 14° SE visible
12 May 4.6 02:55:06 10° N 02:59:56 43° WNW 03:04:25 12° SW visible
13 May 6.4 00:43:23 10° ENE 00:45:49 13° E 00:48:15 10° ESE visible
13 May 4.0 02:20:29 10° NNE 02:25:37 85° WNW 02:29:38 17° SSW visible
14 May 4.7 01:46:11 10° NNE 01:51:08 48° E 01:54:52 17° S visible
14 May 5.3 03:25:52 10° N 03:29:59 25° WNW 03:34:07 10° WSW visible
15 May 5.8 01:12:19 10° NE 01:16:29 25° E 01:20:05 12° SE visible
15 May 4.5 02:50:56 10° N 02:55:50 47° WNW 03:00:27 11° SW visible
16 May 6.5 00:39:39 10° ENE 00:41:38 12° E 00:43:37 10° ESE visible
16 May 4.0 02:16:21 10° NNE 02:21:30 88° ESE 02:25:40 16° SSW visible
17 May 4.9 01:42:06 10° NNE 01:47:00 44° E 01:50:53 15° SSE visible
17 May 5.2 03:21:39 10° N 03:25:55 27° WNW 03:30:11 10° WSW visible
18 May 5.9 01:08:19 10° NE 01:12:19 23° E 01:16:06 11° SE visible
18 May 4.4 02:46:47 10° N 02:51:44 51° WNW 02:56:28 11° SW visible
